Storm Lake, IA

11:52 PM CDT on August 29, 2016 (GMT -0500)
Storm Lake Municipal

Weather History for KSLB - September, 2012

Change the Weather History Date:

Tuesday, September 11, 2012

  Actual Average Record
Temperature  
Mean Temperature 76 °F -  
Max Temperature 91 °F 75 °F 93 °F (1998)
Min Temperature 60 °F 53 °F 46 °F (2014)
Cooling Degree Days 10    
Growing Degree Days 26 (Base 50)    
Moisture  
Dew Point 49 °F    
Average Humidity 43    
Maximum Humidity 68    
Minimum Humidity 21    
Precipitation  
Precipitation 0.00 in - - ()
Sea Level Pressure  
Sea Level Pressure 29.87 in    
Wind  
Wind Speed 14 mph (South)    
Max Wind Speed 25 mph    
Max Gust Speed 36 mph    
Visibility 10 miles    
Events      
Averages and records for this station are not official NWS values.
T = Trace of Precipitation, MM = Missing Value Source: NWS Daily Summary

Daily Weather History Graph

Daily Weather History Graph

Search for Another Location

Airport or City:

Trip Planner

Search our weather history database for the weather conditions in past years. The results will help you decide how hot, cold, wet, or windy it might be!

Date:

Astronomy

Sep. 11, 2012 Rise Set
Actual Time 6:57 AM CDT 7:36 PM CDT
Civil Twilight 6:28 AM CDT 8:05 PM CDT
Nautical Twilight 5:54 AM CDT 8:38 PM CDT
Astronomical Twilight 5:20 AM CDT 9:13 PM CDT
Moon 2:10 AM CDT (9/11) 4:52 PM CDT (9/11)
Length of Visible Light 13h 36m
Length of Day
12h 39m
Waning Crescent, 21% of the Moon is Illuminated
Sep 11
Waning Crescent
Sep 15
New
Sep 22
First Quarter
Sep 29
Full
Oct 8
Last Quarter

Hourly Weather History & Observations

Time (CDT) Temp. Dew Point Humidity Pressure Visibility Wind Dir Wind Speed Gust Speed Precip Events Conditions
12:15 AM 66.2 °F 50.0 °F 56% 29.89 in 10.0 mi South 11.5 mph 18.4 mph N/A   Clear
12:35 AM 64.4 °F 51.8 °F 64% 29.89 in 10.0 mi South 11.5 mph - N/A   Clear
12:55 AM 64.4 °F 51.8 °F 64% 29.88 in 10.0 mi South 10.4 mph 16.1 mph N/A   Clear
1:15 AM 64.4 °F 51.8 °F 64% 29.88 in 10.0 mi South 11.5 mph 17.3 mph N/A   Clear
1:35 AM 64.4 °F 51.8 °F 64% 29.88 in 10.0 mi South 11.5 mph - N/A   Clear
1:55 AM 64.4 °F 51.8 °F 64% 29.88 in 10.0 mi South 12.7 mph 20.7 mph N/A   Clear
2:15 AM 66.2 °F 51.8 °F 60% 29.88 in 10.0 mi South 11.5 mph - N/A   Clear
2:35 AM 64.4 °F 51.8 °F 64% 29.87 in 10.0 mi South 12.7 mph 19.6 mph N/A   Clear
2:55 AM 64.4 °F 51.8 °F 64% 29.87 in 10.0 mi South 11.5 mph 18.4 mph N/A   Clear
3:15 AM 64.4 °F 51.8 °F 64% 29.87 in 10.0 mi South 10.4 mph 17.3 mph N/A   Clear
3:35 AM 64.4 °F 51.8 °F 64% 29.87 in 10.0 mi South 10.4 mph - N/A   Clear
3:55 AM 64.4 °F 51.8 °F 64% 29.87 in 10.0 mi South 13.8 mph 23.0 mph N/A   Clear
4:15 AM 64.4 °F 51.8 °F 64% 29.87 in 10.0 mi SSW 12.7 mph 25.3 mph N/A   Clear
4:35 AM 64.4 °F 51.8 °F 64% 29.87 in 10.0 mi SSW 11.5 mph 20.7 mph N/A   Clear
4:55 AM 62.6 °F 51.8 °F 68% 29.88 in 10.0 mi SSW 10.4 mph 16.1 mph N/A   Clear
5:15 AM 62.6 °F 51.8 °F 68% 29.88 in 10.0 mi SSW 11.5 mph - N/A   Clear
5:35 AM 62.6 °F 50.0 °F 63% 29.88 in 10.0 mi SSW 12.7 mph 20.7 mph N/A   Clear
5:55 AM 62.6 °F 50.0 °F 63% 29.88 in 10.0 mi SSW 12.7 mph 18.4 mph N/A   Clear
6:15 AM 62.6 °F 50.0 °F 63% 29.88 in 10.0 mi SSW 12.7 mph 18.4 mph N/A   Clear
6:35 AM 62.6 °F 50.0 °F 63% 29.88 in 10.0 mi South 13.8 mph - N/A   Clear
6:55 AM 60.8 °F 50.0 °F 68% 29.88 in 10.0 mi South 9.2 mph - N/A   Clear
7:15 AM 60.8 °F 50.0 °F 68% 29.89 in 10.0 mi South 11.5 mph 18.4 mph N/A   Clear
7:35 AM 60.8 °F 50.0 °F 68% 29.89 in 10.0 mi South 9.2 mph 16.1 mph N/A   Clear
7:55 AM 60.8 °F 50.0 °F 68% 29.90 in 10.0 mi South 9.2 mph - N/A   Clear
8:15 AM 64.4 °F 50.0 °F 59% 29.90 in 10.0 mi South 11.5 mph 18.4 mph N/A   Clear
8:35 AM 66.2 °F 50.0 °F 56% 29.89 in 10.0 mi South 13.8 mph 20.7 mph N/A   Clear
8:55 AM 68.0 °F 50.0 °F 52% 29.89 in 10.0 mi South 15.0 mph - N/A   Clear
9:15 AM 71.6 °F 50.0 °F 46% 29.89 in 10.0 mi SSW 15.0 mph 21.9 mph N/A   Clear
9:35 AM 75.2 °F 48.2 °F 38% 29.89 in 10.0 mi SSW 16.1 mph 29.9 mph N/A   Clear
9:55 AM 77.0 °F 48.2 °F 36% 29.89 in 10.0 mi SSW 16.1 mph 33.4 mph N/A   Clear
10:15 AM 77.0 °F 46.4 °F 34% 29.90 in 10.0 mi SSW 19.6 mph 32.2 mph N/A   Clear
10:35 AM 77.0 °F 46.4 °F 34% 29.90 in 10.0 mi SSW 20.7 mph - N/A   Clear
10:55 AM 80.6 °F 48.2 °F 32% 29.89 in 10.0 mi SSW 19.6 mph 32.2 mph N/A   Clear
11:15 AM 82.4 °F 46.4 °F 28% 29.89 in 10.0 mi SSW 21.9 mph 29.9 mph N/A   Clear
11:35 AM 84.2 °F 46.4 °F 27% 29.88 in 10.0 mi SSW 20.7 mph 31.1 mph N/A   Clear
11:55 AM 86.0 °F 46.4 °F 25% 29.88 in 10.0 mi SSW 21.9 mph 31.1 mph N/A   Clear
12:15 PM 86.0 °F 46.4 °F 25% 29.88 in 10.0 mi SSW 24.2 mph 32.2 mph N/A   Clear
12:35 PM 87.8 °F 44.6 °F 22% 29.87 in 10.0 mi SSW 21.9 mph 34.5 mph N/A   Clear
12:55 PM 87.8 °F 44.6 °F 22% 29.86 in 10.0 mi SSW 25.3 mph 35.7 mph N/A   Clear
1:15 PM 89.6 °F 44.6 °F 21% 29.86 in 10.0 mi SSW 20.7 mph 34.5 mph N/A   Clear
1:35 PM 87.8 °F 44.6 °F 22% 29.86 in 10.0 mi SSW 21.9 mph 32.2 mph N/A   Clear
1:55 PM 89.6 °F 46.4 °F 22% 29.85 in 10.0 mi SSW 20.7 mph 31.1 mph N/A   Clear
2:15 PM 89.6 °F 46.4 °F 22% 29.85 in 10.0 mi SSW 16.1 mph 31.1 mph N/A   Clear
2:35 PM 91.4 °F 46.4 °F 21% 29.85 in 10.0 mi SSW 23.0 mph 31.1 mph N/A   Clear
2:55 PM 91.4 °F 46.4 °F 21% 29.84 in 10.0 mi South 21.9 mph 31.1 mph N/A   Clear
3:15 PM 91.4 °F 48.2 °F 23% 29.84 in 10.0 mi South 18.4 mph 33.4 mph N/A   Clear
3:35 PM 89.6 °F 48.2 °F 24% 29.83 in 10.0 mi SSW 21.9 mph - N/A   Clear
3:55 PM 89.6 °F 46.4 °F 22% 29.83 in 9.0 mi SSW 19.6 mph 32.2 mph N/A   Clear
4:15 PM 89.6 °F 48.2 °F 24% 29.83 in 10.0 mi South 17.3 mph 29.9 mph N/A   Clear
4:35 PM 89.6 °F 48.2 °F 24% 29.83 in 10.0 mi South 19.6 mph 29.9 mph N/A   Clear
4:55 PM 89.6 °F 48.2 °F 24% 29.83 in 10.0 mi South 18.4 mph 28.8 mph N/A   Clear
5:15 PM 89.6 °F 50.0 °F 26% 29.82 in 10.0 mi South 19.6 mph 29.9 mph N/A   Clear
5:35 PM 89.6 °F 48.2 °F 24% 29.82 in 10.0 mi South 18.4 mph 31.1 mph N/A   Clear
5:55 PM 87.8 °F 50.0 °F 27% 29.83 in 10.0 mi South 20.7 mph 27.6 mph N/A   Clear
6:15 PM 87.8 °F 50.0 °F 27% 29.83 in 10.0 mi South 17.3 mph 27.6 mph N/A   Clear
6:35 PM 87.8 °F 50.0 °F 27% 29.83 in 10.0 mi South 16.1 mph 29.9 mph N/A   Clear
6:55 PM 86.0 °F 51.8 °F 31% 29.83 in 10.0 mi South 13.8 mph 24.2 mph N/A   Clear
7:15 PM 84.2 °F 51.8 °F 33% 29.83 in 10.0 mi South 13.8 mph 20.7 mph N/A   Clear
7:35 PM 82.4 °F 50.0 °F 32% 29.83 in 10.0 mi South 12.7 mph 19.6 mph N/A   Clear
7:55 PM 80.6 °F 50.0 °F 34% 29.84 in 10.0 mi South 12.7 mph 19.6 mph N/A   Clear
8:15 PM 80.6 °F 48.2 °F 32% 29.85 in 10.0 mi South 12.7 mph 20.7 mph N/A   Clear
8:35 PM 78.8 °F 48.2 °F 34% 29.86 in 10.0 mi South 12.7 mph 20.7 mph N/A   Clear
8:55 PM 78.8 °F 48.2 °F 34% 29.87 in 10.0 mi South 13.8 mph 19.6 mph N/A   Clear
9:15 PM 77.0 °F 48.2 °F 36% 29.88 in 10.0 mi South 10.4 mph 18.4 mph N/A   Clear
9:35 PM 77.0 °F 48.2 °F 36% 29.88 in 10.0 mi South 10.4 mph - N/A   Clear
9:55 PM 75.2 °F 48.2 °F 38% 29.89 in 10.0 mi South 11.5 mph - N/A   Clear
10:15 PM 75.2 °F 48.2 °F 38% 29.89 in 10.0 mi South 8.1 mph - N/A   Clear
10:35 PM 73.4 °F 48.2 °F 41% 29.90 in 10.0 mi South 9.2 mph - N/A   Clear
10:55 PM 75.2 °F 48.2 °F 38% 29.90 in 10.0 mi South 9.2 mph 16.1 mph N/A   Clear
11:35 PM 75.2 °F 50.0 °F 41% 29.91 in 10.0 mi South 9.2 mph 15.0 mph N/A   Clear
11:55 PM 75.2 °F 50.0 °F 41% 29.91 in 10.0 mi South 10.4 mph - N/A   Clear